Weather History for Southern Pines, NC

Change the Weather History Date:

Tuesday, October 23, 2012

  Actual Average Record
Temperature  
Mean Temperature 60 °F -  
Max Temperature 78 °F 67 °F 84 °F (2007)
Min Temperature 42 °F 45 °F 33 °F (1997)
Degree Days  
Heating Degree Days 5    
Growing Degree Days 10 (Base 50)    
Moisture  
Dew Point 46 °F    
Average Humidity 63    
Maximum Humidity 93    
Minimum Humidity 32    
Precipitation  
Precipitation 0.00 in - - ()
Sea Level Pressure  
Sea Level Pressure 30.16 in    
Wind  
Wind Speed 2 mph (SW)    
Max Wind Speed 8 mph    
Max Gust Speed -    
Visibility 10 miles    
Events      
Averages and records for this station are not official NWS values.
T = Trace of Precipitation, MM = Missing Value Source: NWS Daily Summary

Daily Weather History Graph

Daily Weather History Graph

Search for Another Location

Airport:

Trip Planner

Search our weather history database for the weather conditions in past years. The results will help you decide how hot, cold, wet, or windy it might be!

Date:

Astronomy

Oct. 23, 2012 Rise Set
Actual Time 7:31 AM EDT 6:32 PM EDT
Civil Twilight 7:05 AM EDT 6:57 PM EDT
Nautical Twilight 6:35 AM EDT 7:27 PM EDT
Astronomical Twilight 6:06 AM EDT 7:56 PM EDT
Moon 3:03 PM EDT (10/23) 1:34 AM EDT (10/23)
Length of Visible Light 11h 52m
Length of Day
11h 00m
Waxing Gibbous, 66% of the Moon is Illuminated
Oct 23
Waxing Gibbous
Oct 29
Full
Nov 6
Last Quarter
Nov 13
New
Nov 20
First Quarter

Hourly Weather History & Observations

Time (EDT) Temp. Dew Point Humidity Pressure Visibility Wind Dir Wind Speed Gust Speed Precip Events Conditions
12:15 AM 48.2 °F 44.6 °F 87% 30.19 in 10.0 mi Calm Calm - N/A   Clear
12:35 AM 46.4 °F 42.8 °F 87% 30.19 in 10.0 mi Calm Calm - N/A   Clear
1:15 AM 46.4 °F 42.8 °F 87% 30.18 in 10.0 mi Calm Calm - N/A   Clear
1:35 AM 44.6 °F 42.8 °F 93% 30.19 in 9.0 mi Calm Calm - N/A   Clear
1:55 AM 44.6 °F 42.8 °F 93% 30.18 in 10.0 mi Calm Calm - N/A   Clear
2:15 AM 44.6 °F 41.0 °F 87% 30.18 in 9.0 mi Calm Calm - N/A   Clear
2:35 AM 46.4 °F 42.8 °F 87% 30.17 in 10.0 mi Calm Calm - N/A   Clear
2:55 AM 46.4 °F 42.8 °F 87% 30.18 in 10.0 mi Calm Calm - N/A   Clear
3:15 AM 46.4 °F 42.8 °F 87% 30.17 in 10.0 mi Calm Calm - N/A   Clear
3:55 AM 44.6 °F 41.0 °F 87% 30.16 in 10.0 mi Calm Calm - N/A   Clear
4:15 AM 44.6 °F 42.8 °F 93% 30.15 in 10.0 mi Calm Calm - N/A   Clear
4:35 AM 44.6 °F 41.0 °F 87% 30.16 in 10.0 mi Calm Calm - N/A   Clear
4:55 AM 42.8 °F 39.2 °F 87% 30.16 in 10.0 mi Calm Calm - N/A   Clear
5:15 AM 44.6 °F 39.2 °F 81% 30.16 in 10.0 mi Calm Calm - N/A   Clear
5:35 AM 44.6 °F 42.8 °F 93% 30.17 in 10.0 mi Calm Calm - N/A   Clear
5:55 AM 42.8 °F 39.2 °F 87% 30.17 in 10.0 mi Calm Calm - N/A   Clear
6:15 AM 42.8 °F 39.2 °F 87% 30.18 in 9.0 mi Calm Calm - N/A   Clear
6:35 AM 42.8 °F 39.2 °F 87% 30.19 in 9.0 mi Calm Calm - N/A   Clear
6:55 AM 42.8 °F 39.2 °F 87% 30.19 in 10.0 mi Calm Calm - N/A   Clear
7:35 AM 42.8 °F 39.2 °F 87% 30.20 in 10.0 mi Calm Calm - N/A   Clear
7:55 AM 42.8 °F 39.2 °F 87% 30.20 in 8.0 mi Calm Calm - N/A   Clear
8:15 AM 46.4 °F 42.8 °F 87% 30.20 in 10.0 mi Calm Calm - N/A   Clear
8:35 AM 51.8 °F 46.4 °F 82% 30.21 in 10.0 mi Calm Calm - N/A   Clear
8:55 AM 55.4 °F 48.2 °F 77% 30.21 in 10.0 mi Calm Calm - N/A   Clear
9:15 AM 59.0 °F 48.2 °F 67% 30.21 in 10.0 mi Calm Calm - N/A   Clear
9:35 AM 60.8 °F 48.2 °F 63% 30.21 in 10.0 mi West 3.5 mph - N/A   Clear
9:55 AM 62.6 °F 48.2 °F 59% 30.21 in 10.0 mi WSW 4.6 mph - N/A   Clear
10:15 AM 66.2 °F 50.0 °F 56% 30.21 in 10.0 mi Calm Calm - N/A   Clear
10:35 AM 68.0 °F 50.0 °F 52% 30.21 in 10.0 mi Calm Calm - N/A   Clear
10:55 AM 69.8 °F 51.8 °F 53% 30.21 in 10.0 mi WSW 5.8 mph - N/A   Clear
11:15 AM 71.6 °F 50.0 °F 46% 30.20 in 10.0 mi WSW 5.8 mph - N/A   Clear
11:55 AM 73.4 °F 50.0 °F 44% 30.19 in 10.0 mi SW 8.1 mph - N/A   Clear
12:15 PM 75.2 °F 48.2 °F 38% 30.19 in 10.0 mi SW 6.9 mph - N/A   Clear
12:35 PM 75.2 °F 48.2 °F 38% 30.19 in 10.0 mi SW 6.9 mph - N/A   Clear
12:55 PM 75.2 °F 50.0 °F 41% 30.18 in 10.0 mi West 5.8 mph - N/A   Clear
1:15 PM 75.2 °F 48.2 °F 38% 30.17 in 10.0 mi Calm Calm - N/A   Clear
1:35 PM 75.2 °F 48.2 °F 38% 30.16 in 10.0 mi South 8.1 mph - N/A   Clear
1:55 PM 77.0 °F 48.2 °F 36% 30.15 in 10.0 mi SSW 8.1 mph - N/A   Clear
2:15 PM 77.0 °F 48.2 °F 36% 30.14 in 10.0 mi South 3.5 mph - N/A   Clear
2:35 PM 77.0 °F 46.4 °F 34% 30.13 in 10.0 mi Calm Calm - N/A   Clear
2:55 PM 78.8 °F 48.2 °F 34% 30.13 in 10.0 mi WNW 4.6 mph - N/A   Clear
3:15 PM 78.8 °F 46.4 °F 32% 30.13 in 10.0 mi Calm Calm - N/A   Clear
3:35 PM 78.8 °F 46.4 °F 32% 30.12 in 10.0 mi West 5.8 mph - N/A   Clear
3:55 PM 78.8 °F 46.4 °F 32% 30.12 in 10.0 mi South 3.5 mph - N/A   Clear
4:15 PM 78.8 °F 46.4 °F 32% 30.12 in 10.0 mi West 5.8 mph - N/A   Clear
4:35 PM 78.8 °F 46.4 °F 32% 30.13 in 10.0 mi SW 6.9 mph - N/A   Clear
4:55 PM 78.8 °F 46.4 °F 32% 30.12 in 10.0 mi SW 4.6 mph - N/A   Clear
5:15 PM 77.0 °F 46.4 °F 34% 30.13 in 10.0 mi South 4.6 mph - N/A   Clear
5:35 PM 75.2 °F 48.2 °F 38% 30.12 in 10.0 mi SSW 5.8 mph - N/A   Clear
5:55 PM 73.4 °F 48.2 °F 41% 30.12 in 10.0 mi SW 4.6 mph - N/A   Clear
6:15 PM 69.8 °F 48.2 °F 46% 30.12 in 10.0 mi South 4.6 mph - N/A   Clear
6:35 PM 66.2 °F 48.2 °F 52% 30.12 in 10.0 mi South 3.5 mph - N/A   Clear
6:55 PM 66.2 °F 48.2 °F 52% 30.13 in 10.0 mi South 3.5 mph - N/A   Clear
7:15 PM 64.4 °F 48.2 °F 56% 30.12 in 10.0 mi Calm Calm - N/A   Clear
7:35 PM 62.6 °F 48.2 °F 59% 30.13 in 10.0 mi Calm Calm - N/A   Clear
7:55 PM 62.6 °F 48.2 °F 59% 30.14 in 10.0 mi Calm Calm - N/A   Clear
8:15 PM 60.8 °F 48.2 °F 63% 30.14 in 10.0 mi South 3.5 mph - N/A   Clear
8:35 PM 57.2 °F 48.2 °F 72% 30.14 in 10.0 mi SW 3.5 mph - N/A   Clear
8:55 PM 59.0 °F 46.4 °F 63% 30.14 in 10.0 mi South 5.8 mph - N/A   Clear
9:15 PM 59.0 °F 46.4 °F 63% 30.14 in 10.0 mi South 4.6 mph - N/A   Clear
9:35 PM 59.0 °F 46.4 °F 63% 30.15 in 10.0 mi Calm Calm - N/A   Clear
9:55 PM 55.4 °F 46.4 °F 72% 30.15 in 10.0 mi Calm Calm - N/A   Clear
10:15 PM 55.4 °F 46.4 °F 72% 30.16 in 10.0 mi SSW 5.8 mph - N/A   Clear
10:35 PM 57.2 °F 46.4 °F 67% 30.16 in 10.0 mi SW 4.6 mph - N/A   Clear
10:55 PM 55.4 °F 46.4 °F 72% 30.16 in 10.0 mi SW 4.6 mph - N/A   Clear
11:15 PM 55.4 °F 46.4 °F 72% 30.16 in 10.0 mi SSW 5.8 mph - N/A   Clear
11:35 PM 55.4 °F 46.4 °F 72% 30.16 in 10.0 mi SW 5.8 mph - N/A   Clear